• en Belgique
  • Liste des pays
  • À 7 jours
  • Température de l'eau
  • Carte satellitaire
  • Carte météo
  • Widgets météo
  • user-avatar
    Se connecter

    Météo par heure à Courtrai

    Ce jour, 14 Novembre, Mercredi

    Heure Température Précipitation Vent Pression Humidité
    00:00 +7°C° 0 mm 4 m/s 768 mmHg 90%
    01:00 +7°C° 0 mm 4 m/s 767 mmHg 91%
    02:00 +7°C° 0 mm 3 m/s 767 mmHg 91%
    03:00 +7°C° 0 mm 3 m/s 767 mmHg 92%
    04:00 +7°C° 0 mm 3 m/s 767 mmHg 92%
    05:00 +6°C° 0 mm 4 m/s 767 mmHg 92%
    06:00 +5°C° 0 mm 4 m/s 767 mmHg 93%
    07:00 +6°C° 0 mm 4 m/s 767 mmHg 90%
    08:00 +7°C° 0 mm 4 m/s 767 mmHg 88%
    09:00 +8°C° 0 mm 5 m/s 767 mmHg 85%
    10:00 +9°C° 0 mm 5 m/s 767 mmHg 80%
    11:00 +10°C° 0 mm 5 m/s 766 mmHg 74%
    12:00 +12°C° 0 mm 4 m/s 766 mmHg 69%
    13:00 +12°C° 0 mm 4 m/s 766 mmHg 70%
    14:00 +12°C° 0 mm 3 m/s 766 mmHg 71%
    15:00 +11°C° 0 mm 3 m/s 765 mmHg 72%
    16:00 +10°C° 0 mm 3 m/s 765 mmHg 76%
    17:00 +9°C° 0 mm 3 m/s 765 mmHg 80%
    18:00 +7°C° 0 mm 4 m/s 765 mmHg 83%
    19:00 +7°C° 0 mm 4 m/s 765 mmHg 83%
    20:00 +7°C° 0 mm 4 m/s 765 mmHg 82%
    21:00 +7°C° 0 mm 4 m/s 765 mmHg 82%
    22:00 +8°C° 0 mm 3 m/s 765 mmHg 83%
    23:00 +8°C° 0 mm 3 m/s 765 mmHg 83%

    Demain, 15 Novembre, Jeudi

    Heure Température Précipitation Vent Pression Humidité
    00:00 +7°C° 0 mm 3 m/s 765 mmHg 84%
    01:00 +7°C° 0 mm 3 m/s 765 mmHg 85%
    02:00 +7°C° 0 mm 3 m/s 764 mmHg 85%
    03:00 +7°C° 0 mm 3 m/s 764 mmHg 86%
    04:00 +7°C° 0 mm 3 m/s 764 mmHg 85%
    05:00 +7°C° 0 mm 3 m/s 764 mmHg 85%
    06:00 +7°C° 0 mm 3 m/s 764 mmHg 85%
    07:00 +8°C° 0 mm 3 m/s 764 mmHg 81%
    08:00 +8°C° 0 mm 3 m/s 765 mmHg 78%
    09:00 +9°C° 0 mm 3 m/s 765 mmHg 74%
    10:00 +11°C° 0 mm 3 m/s 765 mmHg 71%
    11:00 +12°C° 0 mm 3 m/s 764 mmHg 67%
    12:00 +13°C° 0 mm 3 m/s 764 mmHg 64%
    13:00 +13°C° 0 mm 3 m/s 764 mmHg 67%
    14:00 +13°C° 0 mm 3 m/s 764 mmHg 70%
    15:00 +14°C° 0 mm 2 m/s 764 mmHg 73%
    16:00 +11°C° 0 mm 3 m/s 764 mmHg 77%
    17:00 +10°C° 0 mm 3 m/s 764 mmHg 81%
    18:00 +9°C° 0 mm 3 m/s 764 mmHg 86%
    19:00 +9°C° 0 mm 3 m/s 764 mmHg 87%
    20:00 +9°C° 0 mm 3 m/s 765 mmHg 89%
    21:00 +8°C° 0 mm 3 m/s 765 mmHg 90%
    22:00 +8°C° 0 mm 3 m/s 765 mmHg 91%
    23:00 +8°C° 0 mm 2 m/s 765 mmHg 91%

    Après-demain, 16 Novembre, Vendredi

    Heure Température Précipitation Vent Pression Humidité
    00:00 +8°C° 0 mm 2 m/s 765 mmHg 92%
    01:00 +8°C° 0 mm 2 m/s 765 mmHg 92%
    02:00 +8°C° 0 mm 2 m/s 765 mmHg 92%
    03:00 +8°C° 0 mm 2 m/s 766 mmHg 92%
    04:00 +7°C° 0 mm 2 m/s 766 mmHg 92%
    05:00 +7°C° 0 mm 2 m/s 766 mmHg 92%
    06:00 +7°C° 0 mm 2 m/s 766 mmHg 92%
    07:00 +8°C° 0 mm 2 m/s 766 mmHg 90%
    08:00 +8°C° 0 mm 2 m/s 766 mmHg 88%
    09:00 +9°C° 0 mm 2 m/s 767 mmHg 86%
    10:00 +10°C° 0 mm 2 m/s 767 mmHg 81%
    11:00 +13°C° 0 mm 2 m/s 767 mmHg 76%
    12:00 +14°C° 0 mm 2 m/s 767 mmHg 71%
    13:00 +14°C° 0 mm 2 m/s 766 mmHg 73%
    14:00 +14°C° 0 mm 2 m/s 766 mmHg 75%
    15:00 +13°C° 0 mm 2 m/s 766 mmHg 77%
    16:00 +12°C° 0 mm 2 m/s 766 mmHg 80%
    17:00 +10°C° 0 mm 2 m/s 767 mmHg 83%
    18:00 +9°C° 0 mm 3 m/s 767 mmHg 87%
    19:00 +8°C° 0 mm 3 m/s 767 mmHg 86%
    20:00 +8°C° 0 mm 3 m/s 767 mmHg 85%
    21:00 +7°C° 0 mm 3 m/s 767 mmHg 84%
    22:00 +7°C° 0 mm 3 m/s 767 mmHg 82%
    23:00 +7°C° 0 mm 3 m/s 767 mmHg 79%

    17 Novembre, Samedi

    Heure Température Précipitation Vent Pression Humidité
    00:00 +5°C° 0 mm 3 m/s 767 mmHg 76%
    01:00 +5°C° 0 mm 3 m/s 767 mmHg 73%
    02:00 +5°C° 0 mm 3 m/s 767 mmHg 70%
    03:00 +5°C° 0 mm 3 m/s 766 mmHg 66%
    04:00 +5°C° 0 mm 3 m/s 766 mmHg 66%
    05:00 +4°C° 0 mm 3 m/s 766 mmHg 65%
    06:00 +4°C° 0 mm 4 m/s 766 mmHg 65%
    07:00 +5°C° 0 mm 4 m/s 766 mmHg 63%
    08:00 +5°C° 0 mm 4 m/s 767 mmHg 61%
    09:00 +6°C° 0 mm 4 m/s 767 mmHg 59%
    10:00 +7°C° 0 mm 5 m/s 767 mmHg 56%
    11:00 +9°C° 0 mm 5 m/s 767 mmHg 52%
    12:00 +10°C° 0 mm 5 m/s 767 mmHg 48%
    13:00 +10°C° 0 mm 5 m/s 766 mmHg 50%
    14:00 +10°C° 0 mm 5 m/s 766 mmHg 51%
    15:00 +9°C° 0 mm 5 m/s 766 mmHg 53%
    16:00 +8°C° 0 mm 5 m/s 766 mmHg 54%
    17:00 +7°C° 0 mm 5 m/s 766 mmHg 54%
    18:00 +7°C° 0 mm 6 m/s 767 mmHg 55%
    19:00 +6°C° 0 mm 5 m/s 767 mmHg 57%
    20:00 +5°C° 0 mm 5 m/s 767 mmHg 59%
    21:00 +5°C° 0 mm 5 m/s 767 mmHg 61%
    22:00 +5°C° 0 mm 5 m/s 767 mmHg 63%
    23:00 +3°C° 0 mm 5 m/s 767 mmHg 65%

    18 Novembre, Dimanche

    Heure Température Précipitation Vent Pression Humidité
    00:00 +3°C° 0 mm 5 m/s 767 mmHg 67%
    01:00 +3°C° 0 mm 5 m/s 767 mmHg 67%
    02:00 +2°C° 0 mm 5 m/s 766 mmHg 67%
    03:00 +2°C° 0 mm 5 m/s 766 mmHg 68%
    04:00 +2°C° 0 mm 5 m/s 766 mmHg 67%
    05:00 +2°C° 0 mm 5 m/s 766 mmHg 66%
    06:00 +2°C° 0 mm 5 m/s 766 mmHg 66%
    07:00 +2°C° 0 mm 5 m/s 767 mmHg 63%
    08:00 +3°C° 0 mm 6 m/s 767 mmHg 60%
    09:00 +4°C° 0 mm 6 m/s 767 mmHg 58%
    10:00 +5°C° 0 mm 6 m/s 767 mmHg 54%
    11:00 +7°C° 0 mm 6 m/s 767 mmHg 50%
    12:00 +9°C° 0 mm 6 m/s 767 mmHg 47%
    13:00 +8°C° 0 mm 6 m/s 766 mmHg 48%
    14:00 +8°C° 0 mm 5 m/s 766 mmHg 49%
    15:00 +8°C° 0 mm 5 m/s 766 mmHg 50%
    16:00 +7°C° 0 mm 5 m/s 766 mmHg 51%
    17:00 +6°C° 0 mm 5 m/s 766 mmHg 51%
    18:00 +4°C° 0 mm 6 m/s 766 mmHg 52%
    19:00 +5°C° 0 mm 5 m/s 766 mmHg 51%
    20:00 +3°C° 0 mm 5 m/s 766 mmHg 51%
    21:00 +3°C° 0 mm 5 m/s 766 mmHg 50%
    22:00 +3°C° 0 mm 5 m/s 766 mmHg 49%
    23:00 +3°C° 0 mm 5 m/s 766 mmHg 48%

    19 Novembre, Lundi

    Heure Température Précipitation Vent Pression Humidité
    00:00 +2°C° 0 mm 5 m/s 766 mmHg 47%
    01:00 +2°C° 0 mm 6 m/s 765 mmHg 47%
    02:00 +2°C° 0 mm 6 m/s 765 mmHg 47%
    03:00 +2°C° 0 mm 6 m/s 765 mmHg 47%
    04:00 +2°C° 0 mm 6 m/s 765 mmHg 50%
    05:00 +2°C° 0 mm 6 m/s 765 mmHg 53%
    06:00 +2°C° 0 mm 7 m/s 765 mmHg 57%
    07:00 +2°C° 0 mm 7 m/s 765 mmHg 60%
    08:00 +2°C° 0 mm 7 m/s 765 mmHg 63%
    09:00 +2°C° 0 mm 8 m/s 765 mmHg 67%
    10:00 +4°C° 0 mm 8 m/s 765 mmHg 66%
    11:00 +5°C° 0 mm 8 m/s 765 mmHg 65%
    12:00 +6°C° 0 mm 8 m/s 765 mmHg 64%
    13:00 +6°C° 0 mm 8 m/s 765 mmHg 65%
    14:00 +5°C° 0 mm 7 m/s 764 mmHg 66%
    15:00 +5°C° 0 mm 7 m/s 764 mmHg 67%
    16:00 +4°C° 0 mm 7 m/s 764 mmHg 67%
    17:00 +3°C° 0 mm 7 m/s 764 mmHg 67%
    18:00 +3°C° 0 mm 7 m/s 764 mmHg 67%
    19:00 +2°C° 0 mm 7 m/s 764 mmHg 67%
    20:00 +2°C° 0 mm 7 m/s 765 mmHg 68%
    21:00 +1°C° 0 mm 6 m/s 765 mmHg 68%
    22:00 +1°C° 0 mm 6 m/s 765 mmHg 69%
    23:00 +1°C° 0 mm 6 m/s 765 mmHg 71%
    Voir plus